Location: Narrabri
(30.3170°S, 149.7830°E)
Time: 18:57:22
(UTC+11:00)

Mayak - Visible Passes

Search period start: 25 November 2017 00:00
Search period end: 05 December 2017 00:00
Orbit: 584 x 605 km, 97.6° (Epoch: 25 November)

Date Brightness Start Highest point End Pass type
(mag) Time Alt. Az. Time Alt. Az. Time Alt. Az.
26 Nov 1.9 00:11:08 13° SSW 00:11:08 13° SSW 00:11:34 10° SSW visible
27 Nov 1.9 00:20:41 12° SSW 00:20:41 12° SSW 00:21:01 10° SSW visible
28 Nov 2.0 00:30:15 11° SSW 00:30:15 11° SSW 00:30:23 10° SSW visible
29 Nov 1.6 23:12:43 12° SSE 23:12:43 12° SSE 23:13:06 10° SSE visible
30 Nov 1.5 23:22:16 13° SSE 23:22:16 13° SSE 23:22:57 10° SSE visible
01 Dec 1.5 23:31:50 15° SSE 23:31:50 15° SSE 23:32:43 10° S visible
02 Dec 1.5 23:41:23 16° S 23:41:23 16° S 23:42:23 10° S visible
03 Dec 1.5 23:50:56 17° S 23:50:56 17° S 23:51:59 10° S visible
